Regional Weather Roundup
Issued by NWS Cleveland, OH

Home | Current Version | Previous Version | Graphics & Text | Print | Product List | Glossary On
Versions: 1 2 3 4 5 6 7 8 9 10 11 12 13 14 15 16 17 18 19 20 21 22 23 24 25 26 27 28 29 30 31 32 33 34 35 36 37 38 39 40 41 42 43 44 45 46 47 48 49 50
000
ASUS41 KCLE 291602
RWRCLE
OHIO REGIONAL WEATHER ROUNDUP
NATIONAL WEATHER SERVICE CLEVELAND, OH
1200 PM EDT FRI APR 29 2016

NOTE: "FAIR" INDICATES FEW OR NO CLOUDS BELOW 12,000 FEET WITH NO
SIGNIFICANT WEATHER AND/OR OBSTRUCTIONS TO VISIBILITY.

OHZ001>008-015>018-024>027-034-035-043-044-291700-
   NORTHWEST OHIO

CITY           SKY/WX    TMP DP  RH WIND       PRES   REMARKS
DEFIANCE       LGT RAIN  48  41  76 W7        30.09R
FINDLAY        CLOUDY    51  41  68 N3        30.04R
TOLEDO EXPRESS CLOUDY    49  35  58 NW8       30.07R
TOLEDO EXEC    CLOUDY    49  37  63 NE7       30.08R
LIMA           CLOUDY    50  46  86 NW7       30.05R
$$

OHZ009>014-019>023-028>033-038-089-291700-
   NORTHEAST OHIO

CITY           SKY/WX    TMP DP  RH WIND       PRES   REMARKS
CLE-HOPKINS    CLOUDY    48  45  89 NW7       30.05R FOG
CLE-LAKEFRONT  LGT RAIN  48  45  89 NW6       30.02R
CUY CO. ARPT   CLOUDY    48  46  93 N8        30.01R FOG
LORAIN-ELYRIA  CLOUDY    46  42  86 NW9       30.05R
ASHTABULA      LGT RAIN  47  44  90 N6        30.01R
AKRON-CANTON   CLOUDY    50  47  89 SW12      30.00R FOG
WOOSTER        CLOUDY    51  48  89 W7        30.02R
MANSFIELD      CLOUDY    47  46  97 W10       30.03R FOG
YOUNGSTOWN     CLOUDY    48  45  89 SW5       29.99R
$$

OHZ042-051>053-060>062-070>072-077>081-291700-
  SOUTHWEST OHIO

CITY           SKY/WX    TMP DP  RH WIND       PRES   REMARKS
CINC-COVINGTON CLOUDY    63  50  62 NW10      30.04R
CINC-LUNKEN    MOSUNNY   64  52  64 W8        30.04R
HAMILTON       CLOUDY    62  51  67 NW8       30.04R
DAYTON         CLOUDY    57  50  77 NW8       30.04F
WRIGHT-PAT AFB PTSUNNY   57  52  82 W7        30.03S
DAYTON GENERAL CLOUDY    56  50  80 NW10      30.03S
WILMINGTON     CLOUDY    56  51  84 NW8       30.03R
$$

OHZ036-037-039>041-045>050-054>059-063>069-073>076-082>088-291700-
  CENTRAL AND SOUTHEAST OHIO

CITY           SKY/WX    TMP DP  RH WIND       PRES   REMARKS
COLUMBUS       CLOUDY    52  48  86 NW5       30.03R
OSU AIRPORT    CLOUDY    50  47  89 NW6       30.03S
BOLTON FIELD   CLOUDY    52  48  87 NW5       30.04S FOG
RICKENBACK AFB CLOUDY    51  49  91 N5        30.03S FOG
NEWARK         CLOUDY    54  48  80 NW5       30.02R
MARION         CLOUDY    51  46  83 NW5       30.05R
LANCASTER      CLOUDY    54  50  86 VRB5      30.03F FOG
ZANESVILLE     CLOUDY    59  52  77 W8        30.01S
NEW PHILLY     CLOUDY    54  47  77 SW6       30.02R
$$



USA.gov is the U.S. government's official web portal to all federal, state and local government web resources and services.